timestamp,surface_pressure_avg,surface_temp_avg,battery_voltage,lat,long
2021-04-08 00:09:01+00:00,259.3047,2.4,12.65,47.84626,-54.09684
2021-04-08 00:19:01+00:00,256.7765,2.4,12.65,47.84626,-54.09684
2021-04-08 00:29:01+00:00,250.5131,2.4,12.65,47.84626,-54.09684
2021-04-08 00:39:01+00:00,242.4714,2.4,12.65,47.84626,-54.09684
2021-04-08 00:49:01+00:00,240.2398,2.4,12.65,47.84626,-54.09684
2021-04-08 00:59:01+00:00,236.0098,2.4,12.65,47.84626,-54.09684
2021-04-08 01:09:01+00:00,230.0847,2.5,12.65,47.84626,-54.09684
2021-04-08 01:19:01+00:00,226.2347,2.5,12.65,47.84626,-54.09684
2021-04-08 01:29:01+00:00,223.0797,2.47,12.65,47.84626,-54.09684
2021-04-08 01:39:01+00:00,218.9864,2.5,12.65,47.84626,-54.09684
2021-04-08 01:49:01+00:00,216.2564,2.5,12.65,47.84626,-54.09684
2021-04-08 01:59:01+00:00,215.1764,2.5,12.65,47.84626,-54.09684
2021-04-08 02:09:01+00:00,209.6948,2.5,12.65,47.84626,-54.09684
2021-04-08 02:19:01+00:00,206.4415,2.53,12.65,47.84626,-54.09684
2021-04-08 02:29:01+00:00,207.4531,2.53,12.65,47.84626,-54.09684
2021-04-08 02:39:01+00:00,206.5981,2.5,12.65,47.84626,-54.09684
2021-04-08 02:49:01+00:00,203.2081,2.5,12.65,47.84626,-54.09684
2021-04-08 02:59:01+00:00,202.7998,2.5,12.65,47.84626,-54.09684
2021-04-08 03:09:01+00:00,204.5898,2.5,12.65,47.84626,-54.09684
2021-04-08 03:19:01+00:00,204.2231,2.5,12.65,47.84626,-54.09684
2021-04-08 03:29:01+00:00,202.7048,2.5,12.65,47.84626,-54.09684
2021-04-08 03:39:01+00:00,203.0765,2.5,12.65,47.84626,-54.09684
2021-04-08 03:49:01+00:00,203.8214,2.5,12.65,47.84626,-54.09684
2021-04-08 03:59:01+00:00,206.2231,2.52,12.65,47.84626,-54.09684
2021-04-08 04:09:01+00:00,209.1414,2.55,12.65,47.84626,-54.09684
2021-04-08 04:19:01+00:00,211.5981,2.53,12.65,47.84626,-54.09684
2021-04-08 04:29:01+00:00,213.143,2.57,12.65,47.84626,-54.09684
2021-04-08 04:39:01+00:00,215.7831,2.59,12.65,47.84626,-54.09684
2021-04-08 04:49:01+00:00,220.6331,2.6,12.65,47.84626,-54.09684
2021-04-08 04:59:01+00:00,225.2814,2.49,12.65,47.84626,-54.09684
2021-04-08 05:09:01+00:00,227.2214,1.9,12.65,47.84626,-54.09684
2021-04-08 05:19:01+00:00,229.7697,1.9,12.65,47.84626,-54.09684
2021-04-08 05:29:01+00:00,234.9081,2.23,12.65,47.84626,-54.09684
2021-04-08 05:39:01+00:00,238.7714,2.46,12.65,47.84626,-54.09684
2021-04-08 05:49:01+00:00,241.9298,2.57,12.65,47.84626,-54.09684
2021-04-08 05:59:01+00:00,246.5914,2.6,12.65,47.84626,-54.09684
2021-04-08 06:09:01+00:00,254.1714,2.53,12.65,47.84626,-54.09684
2021-04-08 06:19:01+00:00,260.4298,2.49,12.65,47.84626,-54.09684
2021-04-08 06:29:01+00:00,266.4948,2.6,12.65,47.84626,-54.09684
2021-04-08 06:39:01+00:00,273.7081,2.63,12.65,47.84626,-54.09684
2021-04-08 06:49:01+00:00,282.9664,2.07,12.65,47.84626,-54.09684
2021-04-08 06:59:01+00:00,289.9014,2.0,12.65,47.84626,-54.09684
2021-04-08 07:09:01+00:00,294.183,2.09,12.65,47.84626,-54.09684
2021-04-08 07:19:01+00:00,301.7297,2.1,12.57,47.84626,-54.09684
2021-04-08 07:29:01+00:00,311.5964,2.0,12.57,47.84626,-54.09684
2021-04-08 07:39:01+00:00,315.9963,2.0,12.57,47.84626,-54.09684
2021-04-08 07:49:01+00:00,317.5147,1.96,12.57,47.84626,-54.09684
2021-04-08 07:59:01+00:00,322.5564,2.0,12.57,47.84626,-54.09684
2021-04-08 08:09:01+00:00,326.4713,2.0,12.57,47.84626,-54.09684
2021-04-08 08:19:01+00:00,327.0164,1.94,12.57,47.84626,-54.09684
2021-04-08 08:29:01+00:00,328.3979,1.8,12.57,47.84626,-54.09684
2021-04-08 08:39:01+00:00,331.86800000000005,1.8,12.57,47.84626,-54.09684
2021-04-08 08:49:01+00:00,333.2246,1.8,12.57,47.84626,-54.09684
2021-04-08 08:59:01+00:00,332.7746,1.85,12.57,47.84626,-54.09684
2021-04-08 09:09:01+00:00,334.30800000000005,1.8,12.57,47.84626,-54.09684
2021-04-08 09:19:01+00:00,336.278,1.7,12.57,47.84626,-54.09684
2021-04-08 09:29:01+00:00,336.3446,1.69,12.57,47.84626,-54.09684
2021-04-08 09:39:01+00:00,334.9864,1.6,12.57,47.84626,-54.09684
2021-04-08 09:49:01+00:00,335.7729,1.65,12.57,47.84626,-54.09684
2021-04-08 09:59:01+00:00,337.4346,1.77,12.57,47.84626,-54.09684
2021-04-08 10:09:01+00:00,334.8596,2.05,12.57,47.84626,-54.09684
2021-04-08 10:19:01+00:00,332.5613,2.0,12.57,47.84626,-54.09684
2021-04-08 10:29:01+00:00,332.8196,2.0,12.57,47.84626,-54.09684
2021-04-08 10:39:01+00:00,331.3212,2.0,12.57,47.84626,-54.09684
2021-04-08 10:49:01+00:00,326.368,2.0,12.57,47.84626,-54.09684
2021-04-08 10:59:01+00:00,323.3529,2.1,12.57,47.84626,-54.09684
2021-04-08 11:09:01+00:00,320.5513,2.2,12.57,47.84626,-54.09684
2021-04-08 11:19:01+00:00,313.6964,2.34,12.73,47.84626,-54.09684
2021-04-08 11:29:01+00:00,306.4996,2.49,12.73,47.84626,-54.09684
2021-04-08 11:39:01+00:00,304.163,2.5,12.73,47.84626,-54.09684
2021-04-08 11:49:01+00:00,301.193,2.49,12.73,47.84626,-54.09684
2021-04-08 11:59:01+00:00,293.558,2.4,12.73,47.84626,-54.09684
2021-04-08 12:09:01+00:00,284.7747,1.76,12.73,47.84626,-54.09684
2021-04-08 12:19:01+00:00,281.1181,1.6,12.73,47.84626,-54.09684
2021-04-08 12:29:01+00:00,277.2731,1.69,12.73,47.84626,-54.09684
2021-04-08 12:39:01+00:00,270.908,2.51,12.73,47.84626,-54.09684
2021-04-08 12:49:01+00:00,264.5197,2.5,12.73,47.84626,-54.09684
2021-04-08 12:59:01+00:00,259.3414,2.5,12.73,47.84626,-54.09684
2021-04-08 13:09:01+00:00,254.6381,2.5,12.73,47.84626,-54.09684
2021-04-08 13:19:01+00:00,248.988,2.5,12.97,47.84626,-54.09684
2021-04-08 13:29:01+00:00,242.4681,2.5,12.97,47.84626,-54.09684
2021-04-08 13:39:01+00:00,235.8997,2.5,12.97,47.84626,-54.09684
2021-04-08 13:49:01+00:00,233.4264,2.5,12.97,47.84626,-54.09684
2021-04-08 13:59:01+00:00,228.7714,2.54,12.97,47.84626,-54.09684
2021-04-08 14:09:01+00:00,226.0948,2.7,12.97,47.84626,-54.09684
2021-04-08 14:19:01+00:00,224.1781,2.7,13.37,47.84626,-54.09684
2021-04-08 14:29:01+00:00,222.0381,2.7,13.37,47.84626,-54.09684
2021-04-08 14:39:01+00:00,217.3981,2.7,13.37,47.84626,-54.09684
2021-04-08 14:49:01+00:00,213.2165,2.6,13.37,47.84626,-54.09684
2021-04-08 14:59:01+00:00,212.0748,2.6,13.37,47.84626,-54.09684
2021-04-08 15:09:01+00:00,212.7848,2.65,13.37,47.84626,-54.09684
2021-04-08 15:19:01+00:00,211.7381,2.5,14.0,47.84626,-54.09684
2021-04-08 15:29:01+00:00,209.8698,2.2,14.0,47.84626,-54.09684
2021-04-08 15:39:01+00:00,207.7748,2.51,14.0,47.84626,-54.09684
2021-04-08 15:49:01+00:00,206.8781,2.69,14.0,47.84626,-54.09684
2021-04-08 15:59:01+00:00,207.0864,2.7,14.0,47.84626,-54.09684
2021-04-08 16:09:01+00:00,206.0498,2.7,14.0,47.84626,-54.09684
2021-04-08 16:19:01+00:00,205.2031,2.6,14.32,47.84626,-54.09684
2021-04-08 16:29:01+00:00,206.8148,2.8,14.32,47.84626,-54.09684
2021-04-08 16:39:01+00:00,209.2381,2.9,14.32,47.84626,-54.09684
2021-04-08 16:49:01+00:00,210.7648,2.9,14.32,47.84626,-54.09684
2021-04-08 16:59:01+00:00,212.5931,2.98,14.32,47.84626,-54.09684
2021-04-08 17:09:01+00:00,215.6264,3.05,14.32,47.84626,-54.09684
2021-04-08 17:19:01+00:00,218.7381,3.1,14.48,47.84626,-54.09684
2021-04-08 17:29:01+00:00,221.8615,2.9,14.48,47.84626,-54.09684
2021-04-08 17:39:01+00:00,222.8814,2.64,14.48,47.84626,-54.09684
2021-04-08 17:49:01+00:00,223.9431,2.4,14.48,47.84626,-54.09684
2021-04-08 17:59:01+00:00,228.6881,2.2,14.48,47.84626,-54.09684
2021-04-08 18:09:01+00:00,233.173,2.2,14.48,47.84626,-54.09684
2021-04-08 18:19:01+00:00,235.7481,2.26,14.32,47.84626,-54.09684
2021-04-08 18:29:01+00:00,239.2148,2.66,14.32,47.84626,-54.09684
2021-04-08 18:39:01+00:00,244.8731,3.03,14.32,47.84626,-54.09684
2021-04-08 18:49:01+00:00,251.1998,3.12,14.32,47.84626,-54.09684
2021-04-08 18:59:01+00:00,257.0098,3.17,14.32,47.84626,-54.09684
2021-04-08 19:09:01+00:00,262.0764,3.2,14.32,47.84626,-54.09684
2021-04-08 19:19:01+00:00,266.8131,3.1,14.0,47.84626,-54.09684
2021-04-08 19:29:01+00:00,271.2747,3.28,14.0,47.84626,-54.09684
2021-04-08 19:39:01+00:00,276.7031,3.37,14.0,47.84626,-54.09684
2021-04-08 19:49:01+00:00,281.9948,2.69,14.0,47.84626,-54.09684
2021-04-08 19:59:01+00:00,286.9631,2.3,14.0,47.84626,-54.09684
2021-04-08 20:09:01+00:00,293.623,2.4,14.0,47.84626,-54.09684
2021-04-08 20:19:01+00:00,301.353,2.6,13.92,47.84626,-54.09684
2021-04-08 20:29:01+00:00,306.3763,2.76,13.92,47.84626,-54.09684
2021-04-08 20:39:01+00:00,310.5413,2.4,13.92,47.84626,-54.09684
2021-04-08 20:49:01+00:00,317.0979,2.4,13.92,47.84626,-54.09684
2021-04-08 20:59:01+00:00,322.7963,2.3,13.92,47.84626,-54.09684
2021-04-08 21:09:01+00:00,323.0764,2.2,13.92,47.84626,-54.09684
2021-04-08 21:19:01+00:00,323.4796,2.1,13.68,47.84626,-54.09684
2021-04-08 21:29:01+00:00,325.5863,2.1,13.68,47.84626,-54.09684
2021-04-08 21:39:01+00:00,326.7297,2.0,13.68,47.84626,-54.09684
2021-04-08 21:49:01+00:00,327.7663,2.0,13.68,47.84626,-54.09684
2021-04-08 21:59:01+00:00,329.6347,2.0,13.68,47.84626,-54.09684
2021-04-08 22:09:01+00:00,329.4113,2.0,13.68,47.84626,-54.09684
2021-04-08 22:19:01+00:00,328.9713,2.0,13.29,47.84626,-54.09684
2021-04-08 22:29:01+00:00,329.30800000000005,2.0,13.29,47.84626,-54.09684
2021-04-08 22:39:01+00:00,327.0163,2.04,13.29,47.84626,-54.09684
2021-04-08 22:49:01+00:00,323.6563,2.1,13.29,47.84626,-54.09684
2021-04-08 22:59:01+00:00,324.028,2.14,13.29,47.84626,-54.09684
2021-04-08 23:09:01+00:00,325.3413,2.4,13.29,47.84626,-54.09684
2021-04-08 23:19:01+00:00,321.4047,2.15,12.97,47.84626,-54.09684
2021-04-08 23:29:01+00:00,315.0831,2.17,12.97,47.84626,-54.09684
2021-04-08 23:39:01+00:00,312.0514,2.1,12.97,47.84626,-54.09684
2021-04-08 23:49:01+00:00,310.633,2.67,12.97,47.84626,-54.09684
2021-04-08 23:59:01+00:00,304.8497,2.65,12.97,47.84626,-54.09684
